Date,TemperatureHighF,TemperatureAvgF,TemperatureLowF,DewpointHighF,DewpointAvgF,DewpointLowF,HumidityHigh,HumidityAvg,HumidityLow,PressureMaxIn,PressureMinIn,WindSpeedMaxMPH,WindSpeedAvgMPH,GustSpeedMaxMPH,PrecipitationSumIn
2013-3-1,48.5,38.0,27.8,33.3,28.8,25.0,97,71,46,29.98,29.52,13,2,13,0.00
2013-3-2,50.1,38.0,30.0,36.3,28.4,19.7,92,70,45,30.00,29.88,14,2,14,0.00
2013-3-3,49.9,36.1,28.3,20.5,17.5,13.8,65,48,28,30.06,29.93,15,5,15,0.00
2013-3-4,59.7,37.4,21.5,29.2,17.6,2.8,91,52,10,30.19,30.05,13,2,13,0.00
2013-3-5,48.9,41.0,33.7,44.2,37.0,28.4,99,86,69,30.12,29.64,12,2,12,0.15
2013-3-6,51.0,40.7,33.0,41.9,27.5,21.9,99,61,38,30.15,29.64,27,8,27,0.00
2013-3-7,57.3,41.7,31.9,29.7,26.5,23.1,77,57,33,30.33,30.14,15,6,15,0.00
2013-3-8,58.6,41.2,26.4,29.2,23.2,18.0,87,53,21,30.37,29.91,17,4,17,0.00
2013-3-9,70.3,43.8,0.0,39.2,30.8,25.2,97,62,22,30.06,29.95,9,2,9,0.00
2013-3-10,71.5,50.3,0.0,41.6,34.3,29.1,97,61,24,30.01,29.81,6,2,7,0.00
2013-3-11,69.9,55.3,40.6,54.3,42.1,18.8,92,63,31,29.85,29.50,17,5,17,0.02
2013-3-12,74.4,59.3,45.1,60.1,49.8,30.4,99,75,27,29.60,29.37,14,5,14,0.46
2013-3-13,60.0,46.0,31.8,42.7,27.5,17.5,99,53,24,29.78,29.60,19,5,19,0.00
2013-3-14,59.1,40.7,27.4,30.1,18.5,11.4,66,43,17,29.90,29.76,17,4,17,0.00
2013-3-15,65.2,45.9,27.6,41.9,31.3,18.1,90,60,31,29.82,29.52,10,3,10,0.00
2013-3-16,80.2,58.2,43.8,49.8,45.1,39.5,91,66,32,29.53,29.32,11,3,11,0.00
2013-3-19,67.9,54.8,46.0,23.5,18.1,12.5,31,24,13,30.04,29.92,14,4,14,0.21
2013-3-20,61.1,46.8,41.1,25.2,13.7,7.6,36,26,17,30.13,29.91,9,4,9,0.00
2013-3-21,49.2,38.7,29.6,31.9,12.8,7.7,67,36,20,29.99,29.77,18,6,18,0.00
2013-3-22,57.7,37.6,22.2,30.9,18.1,10.9,85,49,17,30.09,29.97,11,3,11,0.00
2013-3-23,62.4,44.3,34.3,36.9,31.8,24.5,89,64,30,30.07,29.91,7,1,7,0.00
2013-3-24,41.7,40.1,38.2,39.4,37.6,35.3,97,91,85,29.94,29.72,14,2,14,0.18
2013-3-25,48.1,42.4,35.5,28.8,24.4,21.8,68,50,36,30.12,29.92,14,6,14,0.33
2013-3-26,49.4,39.7,32.1,27.4,25.2,23.5,74,57,40,30.42,30.14,14,4,14,0.00
2013-3-27,53.4,43.5,30.5,25.6,22.1,18.2,77,44,28,30.52,30.42,19,6,19,0.00
2013-3-28,59.7,42.0,26.2,30.0,23.3,16.0,92,53,20,30.57,30.45,17,3,17,0.00
2013-3-29,66.7,40.1,26.4,34.9,28.7,19.0,99,71,16,30.61,30.44,9,1,9,0.00
2013-3-30,71.2,52.5,35.9,45.0,38.5,31.4,97,64,29,30.50,30.35,8,2,8,0.00
2013-3-31,69.6,55.5,47.6,59.4,51.7,42.9,99,88,62,30.35,30.07,11,2,11,0.32